Wind_Speed
37 36 34 37 35 36 36 34 36 36 35 33 31 31 32 40 46 54 47 56 35 25 28 38 37 41 39 42 43 30 33 36 32 27 26 21 18 22 24 24 22 20 17 24 22 12 15 13 13 12 10 14 16 14
38 37 37 39 38 37 36 35 34 35 33 32 32 32 33 39 42 63 46 52 39 26 22 42 34 34 37 39 49 29 33 28 33 27 28 20 19 17 25 25 26 21 23 14 16 9 9 8 10 12 18 20 18 16
38 38 40 41 40 38 37 36 35 34 33 32 32 33 33 33 41 63 51 51 49 22 25 37 40 34 37 35 36 34 35 32 29 28 27 20 22 20 22 25 23 24 19 19 18 20 19 18 16 17 20 19 16 15
39 39 41 42 40 40 38 36 35 34 34 33 32 33 32 31 40 62 58 47 41 32 19 33 33 31 32 31 41 33 28 31 34 25 22 24 29 24 24 24 25 27 24 24 24 21 19 18 19 17 15 12 13 14
40 42 44 43 41 41 39 37 36 35 34 34 33 32 30 29 39 58 49 51 38 38 26 39 32 35 31 35 40 36 32 26 30 34 34 32 33 31 25 22 29 26 25 24 25 17 16 18 14 13 12 13 15 14
40 43 46 46 43 41 40 39 36 35 34 33 32 29 28 35 31 55 41 62 43 37 20 31 37 38 37 33 35 28 29 29 29 32 31 34 33 25 14 28 25 25 24 21 20 20 17 15 14 14 14 16 16 17
41 42 47 48 45 40 40 39 38 36 34 33 31 29 32 40 41 54 42 60 55 30 21 31 37 39 44 39 33 31 35 33 35 33 31 30 29 27 32 29 17 20 22 22 22 19 16 15 15 17 17 18 17 17
44 41 42 50 47 44 39 39 38 37 33 32 27 30 38 37 47 45 31 46 52 39 29 13 21 39 43 40 39 36 34 37 33 30 30 29 26 27 31 32 30 26 22 23 23 19 15 15 15 16 18 19 18 17
46 46 43 45 51 48 43 39 37 36 34 29 30 35 35 42 52 42 27 44 46 31 28 28 19 32 42 39 43 39 36 31 22 28 30 27 30 26 26 31 30 27 26 22 21 18 17 17 16 16 18 18 16 15
48 46 44 43 44 48 45 40 38 34 37 29 40 44 41 52 48 29 30 35 52 32 34 36 33 17 45 47 42 38 30 26 15 26 23 33 42 38 35 28 16 18 19 18 18 18 15 16 17 16 15 14 13 12
48 44 43 41 41 47 44 40 37 41 35 29 35 40 48 43 44 41 32 34 25 23 52 47 35 30 25 39 37 26 22 18 11 16 16 15 38 27 25 34 34 29 25 22 22 20 19 19 15 14 11 10 12 14
50 44 42 40 42 45 44 42 43 40 29 31 28 36 43 43 32 23 21 21 19 32 48 52 45 30 31 27 26 23 16 11 6 11 11 13 31 22 18 20 26 27 24 23 22 21 19 17 14 12 12 12 13 16
51 46 43 44 47 46 45 44 37 28 31 31 44 42 42 37 12 20 27 22 21 38 48 53 48 38 29 28 13 11 11 11 9 10 9 19 14 9 13 18 21 22 23 23 22 19 17 15 14 12 11 12 14 14
54 49 44 49 50 50 45 37 35 33 35 16 25 32 27 23 15 39 45 51 42 42 42 53 53 39 33 27 12 10 12 10 10 11 17 20 17 16 15 15 17 17 18 19 17 15 14 13 12 11 11 12 13 13
55 49 47 51 51 47 43 37 42 39 25 12 20 20 31 19 33 44 45 51 37 40 41 50 46 36 38 16 12 10 14 11 13 17 16 14 16 14 14 16 17 17 16 14 14 13 13 13 11 11 10 11 12 14
55 48 50 54 52 48 42 35 39 35 29 8 17 25 40 24 27 43 42 43 37 36 43 44 35 28 26 13 12 14 11 11 13 8 9 10 12 15 17 16 16 15 14 15 15 14 13 12 11 10 9 11 13 18
57 58 60 58 52 45 40 39 37 29 16 10 29 35 41 37 30 40 42 42 34 34 42 35 18 18 13 17 17 19 26 20 9 10 11 12 12 14 16 17 15 15 16 16 14 13 12 10 8 7 9 13 18 21
56 58 61 58 53 46 40 36 25 20 11 14 29 37 40 46 33 33 38 40 39 35 34 31 23 25 13 19 30 33 24 19 15 14 13 14 17 18 16 16 17 17 17 17 14 11 9 7 6 8 12 16 21 25
60 63 61 58 54 44 41 37 39 9 16 23 20 30 33 31 30 33 34 35 35 36 41 33 14 28 28 25 16 14 26 21 16 18 19 18 17 18 19 19 18 19 18 14 11 10 7 5 8 12 15 19 23 26
59 60 59 52 43 40 25 19 39 8 28 31 28 27 36 35 32 38 44 44 46 46 40 28 21 12 19 19 12 13 14 18 18 20 20 21 21 20 19 19 20 19 15 13 11 7 5 7 11 15 19 23 25 27
57 55 50 44 42 31 14 29 17 26 36 36 37 36 37 39 42 42 49 50 49 46 39 33 25 17 9 14 16 13 17 18 17 11 12 18 22 22 22 22 18 16 14 10 7 5 7 10 14 17 21 24 27 28
58 52 48 50 32 14 21 29 22 41 35 35 36 41 44 41 42 45 50 46 43 43 39 28 21 16 15 17 17 17 17 20 22 19 20 21 20 19 21 20 18 15 11 8 6 6 9 13 16 20 24 26 26 24
57 50 45 27 15 10 29 25 34 44 39 43 40 42 43 44 44 42 39 45 41 38 35 22 21 21 17 16 18 22 23 24 22 22 22 21 20 21 21 19 16 12 9 7 5 9 12 15 19 22 24 23 22 21
52 49 31 22 12 15 38 32 35 33 39 49 39 39 47 46 45 42 36 48 42 35 29 27 24 21 21 22 24 26 25 25 23 24 22 22 22 23 21 16 12 9 7 5 8 11 15 18 20 21 21 20 20 21
36 15 14 13 13 30 37 40 37 35 40 39 44 41 48 48 40 33 37 45 39 33 32 28 24 22 20 24 27 26 26 24 21 22 24 22 20 19 17 14 10 6 4 7 11 14 16 17 18 19 19 19 21 21
12 18 18 17 27 35 38 43 38 40 47 38 30 39 44 39 28 19 36 42 38 35 31 25 22 24 26 25 24 26 26 26 24 24 26 24 20 15 11 9 5 3 6 10 13 14 14 16 17 18 19 21 21 22
14 27 29 27 31 39 43 34 35 41 38 26 35 43 33 21 18 18 35 35 33 30 26 25 25 26 26 27 28 28 29 29 25 21 19 18 16 13 10 6 2 5 8 10 11 12 14 17 19 20 21 21 22 23
21 25 27 25 31 37 39 36 37 40 33 27 38 39 23 16 14 20 32 37 34 31 30 31 31 28 25 25 25 27 31 31 28 23 19 16 14 10 6 2 3 5 8 9 11 14 16 18 20 22 22 23 23 23
27 26 18 17 26 34 37 40 36 37 37 37 41 42 29 19 15 14 32 38 35 33 36 36 34 31 30 29 29 28 24 22 19 18 16 13 10 7 5 3 3 6 9 10 13 14 17 19 20 22 23 23 23 22
30 24 23 27 28 27 29 33 32 35 35 37 40 40 31 21 15 26 37 37 36 36 34 34 34 33 33 33 33 32 28 24 22 17 14 12 9 6 4 2 4 7 9 11 13 16 18 19 21 22 24 24 24 22
33 29 27 32 26 20 25 23 22 23 26 24 24 24 21 19 26 36 36 35 36 36 36 35 34 33 31 29 27 23 22 21 19 16 14 11 8 5 3 3 5 7 9 12 15 17 19 21 22 24 25 26 25 24
28 28 25 26 25 24 21 21 23 23 25 21 24 23 20 25 35 40 40 38 37 36 34 32 30 30 29 26 23 21 18 16 16 15 12 10 8 5 4 3 5 7 9 12 15 18 21 23 24 26 27 27 27 26
27 28 25 27 30 30 28 31 31 27 23 25 27 25 29 37 46 46 46 41 36 33 31 31 31 31 31 29 26 23 21 19 17 14 12 10 7 5 3 3 4 7 9 13 17 20 23 25 27 28 29 29 29 29
Wind_Direction
221 217 214 207 204 207 204 204 200 202 201 201 200 203 203 203 198 187 186 196 189 180 206 199 194 197 200 201 193 200 203 206 208 213 218 224 236 239 241 246 249 255 243 234 229 232 260 268 270 269 290 307 308 312
214 213 208 201 201 204 203 201 196 198 198 200 199 202 205 207 201 190 181 189 178 184 198 205 208 208 216 210 196 200 213 217 214 217 228 231 233 234 242 242 251 235 238 242 230 248 260 277 281 283 296 305 305 302
209 207 203 199 201 202 201 197 195 197 199 201 200 202 206 211 203 190 181 187 191 191 182 202 206 209 216 211 186 206 214 216 223 231 242 237 234 246 237 242 246 240 234 237 257 268 271 273 284 294 298 300 301 297
205 203 201 198 199 199 200 197 197 198 198 200 201 203 210 209 202 189 188 189 189 199 199 208 207 209 216 211 202 206 207 231 233 237 239 247 249 255 252 250 249 246 247 250 258 266 278 287 296 297 294 296 294 289
201 201 199 200 199 198 198 198 199 199 199 201 203 206 215 209 195 191 191 196 189 198 218 222 226 226 228 223 220 207 208 219 229 237 239 248 252 253 255 253 238 236 242 244 265 275 281 291 290 290 287 289 291 292
199 201 199 201 199 198 197 198 200 201 203 202 205 211 209 195 190 189 196 191 188 190 208 211 216 215 214 208 203 200 213 217 225 235 240 246 253 237 244 242 241 246 248 249 257 273 275 274 279 283 287 289 291 291
199 200 200 200 199 197 198 198 201 202 204 202 207 211 199 186 186 185 192 191 182 174 180 186 192 198 205 207 202 209 209 214 222 232 240 242 239 235 239 244 250 239 244 246 250 265 273 275 281 283 286 284 285 281
199 198 201 202 198 195 194 197 200 203 202 200 210 198 185 186 185 187 182 201 175 177 191 170 170 183 196 194 203 206 207 219 228 227 234 236 238 241 249 247 242 244 243 250 257 272 274 274 278 281 280 276 273 274
196 197 197 198 199 197 196 200 202 203 199 201 193 179 181 188 190 187 193 196 173 179 205 206 185 184 187 194 204 208 218 213 218 228 235 239 241 235 247 248 246 248 252 256 264 263 266 270 268 273 273 272 272 274
196 194 196 195 194 196 197 198 200 198 195 176 167 180 189 190 173 151 185 193 197 197 202 200 207 195 192 201 206 201 200 206 222 233 239 243 250 250 246 248 246 245 245 250 250 267 260 255 269 273 276 274 269 266
194 193 193 192 188 190 188 189 192 200 192 175 174 182 184 178 168 166 186 184 184 188 206 210 215 214 199 199 195 194 202 206 225 231 221 247 260 268 257 243 243 246 247 247 252 250 254 266 275 278 273 256 257 269
191 190 191 187 183 180 184 186 197 197 172 162 161 172 169 178 171 187 188 166 187 196 200 204 208 202 196 194 197 193 182 190 215 213 208 249 265 275 246 227 231 234 237 243 246 251 260 270 274 257 246 254 271 287
186 187 186 177 172 174 180 193 189 165 163 151 146 167 179 174 200 164 171 162 163 183 197 192 190 187 179 180 185 177 185 200 205 202 224 243 253 247 214 215 221 227 233 239 244 250 258 258 250 243 247 268 281 288
183 184 180 173 171 176 188 180 165 161 173 179 165 169 179 193 192 181 186 195 192 190 190 190 193 184 186 173 169 177 189 193 206 223 235 252 256 234 213 210 217 225 232 238 243 245 239 234 233 238 259 270 281 290
181 180 176 173 172 180 183 177 174 172 169 172 173 184 189 175 167 178 186 190 183 186 179 174 182 183 175 171 180 179 178 205 213 232 252 256 236 219 209 210 214 220 229 235 226 219 220 222 231 248 258 273 288 298
177 175 178 171 173 182 183 181 187 190 201 191 172 176 188 190 171 180 182 180 181 179 174 169 169 171 183 179 190 196 197 208 225 214 199 199 193 196 201 206 212 214 208 206 205 208 211 223 233 251 273 290 297 299
174 173 169 172 180 180 184 191 191 195 203 193 166 176 182 190 181 178 178 179 168 169 175 175 171 176 183 204 201 198 213 220 212 200 181 167 171 182 190 198 200 199 198 198 199 203 216 226 240 262 281 291 297 302
174 168 169 175 180 181 186 192 186 191 225 141 154 164 178 190 188 168 170 181 177 184 192 178 185 184 190 196 206 214 207 207 203 189 180 169 169 175 183 193 194 194 193 190 198 206 214 225 249 272 287 298 304 307
167 168 172 178 180 178 183 186 185 211 161 174 164 171 171 169 176 175 172 182 190 194 189 188 195 208 211 221 220 224 225 220 212 192 170 168 171 179 184 183 188 187 185 190 196 199 211 236 269 288 297 301 306 315
167 172 172 174 173 175 166 193 198 187 155 169 185 175 166 169 176 181 177 180 187 184 187 197 205 211 222 224 220 185 187 202 195 185 180 175 175 178 181 183 181 183 185 188 190 193 220 264 286 296 305 312 318 321
166 173 168 168 169 165 177 185 198 149 150 157 165 168 168 172 175 179 179 178 184 191 207 214 216 220 210 215 203 196 175 174 172 183 187 184 177 177 178 175 173 175 180 181 180 216 263 287 298 306 311 316 321 324
165 167 166 162 167 167 169 188 146 155 159 169 174 174 169 172 174 177 182 182 191 197 203 204 209 201 204 194 185 171 172 170 167 169 179 184 182 177 172 169 169 172 169 180 213 256 282 294 304 313 319 322 324 326
165 166 159 159 158 140 165 162 147 150 153 171 177 175 168 171 178 181 183 193 197 199 199 195 183 182 182 185 174 166 166 170 175 177 173 173 170 162 163 162 163 167 183 212 255 279 294 308 317 321 322 322 324 327
167 163 172 196 153 148 165 163 152 145 157 166 171 170 176 177 182 180 191 196 198 197 190 188 184 191 179 177 171 170 169 166 171 172 171 170 166 160 159 163 169 183 201 240 277 299 312 320 323 324 323 322 324 326
171 181 166 182 144 157 164 168 168 158 154 163 168 173 177 179 176 186 194 194 193 189 185 182 184 181 190 179 170 169 168 169 177 173 159 156 161 162 163 169 179 190 246 290 306 316 321 325 327 324 323 324 325 326
145 166 179 177 161 167 163 170 172 170 170 170 172 174 175 178 178 202 203 199 195 190 190 193 188 178 175 174 171 168 169 161 164 166 160 155 160 162 165 171 184 247 298 310 318 324 331 331 326 324 327 327 326 330
133 162 193 190 175 181 178 177 181 180 172 181 178 174 171 183 199 204 196 193 193 189 185 180 176 174 172 168 170 173 167 155 156 166 166 162 162 170 175 180 221 306 316 319 327 335 334 329 326 329 330 329 332 334
140 148 155 166 179 192 194 185 184 184 187 186 188 182 182 195 202 197 185 185 187 184 179 173 170 166 169 174 175 173 165 161 161 165 169 168 169 174 184 220 303 316 318 324 333 336 335 333 334 334 335 337 337 334
144 147 159 167 178 177 183 186 191 196 199 196 188 188 185 175 170 174 180 182 182 182 181 173 163 162 168 168 167 166 169 168 168 167 168 172 178 184 205 237 302 315 321 327 332 336 340 339 338 341 342 339 335 332
156 154 180 179 176 180 190 196 197 198 198 198 197 193 193 190 192 180 181 178 179 179 176 171 171 167 169 170 167 165 165 168 169 171 177 182 190 200 215 265 307 320 327 331 339 344 344 346 347 346 343 339 334 332
163 174 174 173 177 177 179 186 186 183 188 186 186 189 193 196 177 171 175 173 171 171 171 172 170 170 176 176 178 180 178 176 175 177 182 188 196 205 233 283 310 319 329 342 347 351 356 355 351 348 344 340 337 335
172 175 191 180 161 159 163 168 171 173 174 180 182 178 191 188 177 169 167 169 171 174 175 175 176 173 167 169 170 171 176 184 185 186 190 194 200 216 248 287 310 330 339 348 355 358 356 354 351 346 341 339 339 335
171 176 178 169 157 156 161 160 152 153 164 172 177 181 186 186 180 172 168 171 173 175 175 174 171 171 174 177 182 185 185 187 189 194 197 199 208 228 252 290 328 335 341 350 356 358 357 355 350 344 340 338 338 336
Height
2896 2904 2911 2918 2925 2934 2941 2948 2956 2963 2970 2978 2985 2992 2998 3004 3013 3024 3034 3046 3054 3058 3063 3072 3078 3085 3091 3099 3105 3112 3118 3120 3127 3132 3136 3137 3140 3141 3141 3142 3143 3146 3147 3146 3149 3151 3147 3142 3143 3145 3145 3143 3143 3142
2889 2897 2904 2912 2920 2928 2936 2943 2951 2958 2966 2974 2981 2988 2993 2999 3007 3020 3028 3040 3049 3054 3061 3068 3073 3080 3087 3094 3102 3106 3114 3116 3121 3127 3131 3134 3135 3135 3135 3136 3137 3140 3140 3142 3144 3141 3140 3140 3141 3140 3140 3140 3139 3138
2883 2891 2899 2906 2915 2923 2931 2939 2947 2954 2962 2969 2977 2983 2989 2994 3003 3014 3026 3037 3043 3049 3053 3062 3069 3077 3082 3087 3096 3104 3109 3113 3117 3122 3126 3128 3129 3130 3130 3130 3133 3133 3135 3136 3138 3137 3137 3137 3137 3137 3136 3135 3135 3134
2876 2885 2894 2902 2910 2919 2927 2935 2943 2951 2958 2965 2972 2978 2984 2990 2998 3009 3019 3030 3039 3043 3048 3056 3064 3073 3079 3085 3091 3099 3105 3111 3115 3120 3121 3123 3124 3125 3126 3128 3128 3130 3131 3131 3132 3132 3133 3133 3132 3132 3131 3131 3130 3129
2870 2879 2888 2897 2906 2915 2923 2931 2939 2947 2954 2961 2968 2974 2979 2985 2994 3005 3017 3024 3032 3046 3048 3054 3061 3067 3074 3080 3086 3094 3099 3105 3109 3113 3114 3116 3118 3120 3120 3120 3120 3122 3124 3126 3127 3129 3129 3128 3127 3127 3127 3127 3126 3125
2864 2873 2882 2893 2901 2910 2919 2927 2935 2943 2950 2957 2964 2969 2975 2981 2991 3002 3012 3021 3028 3042 3049 3050 3056 3063 3069 3074 3082 3088 3093 3098 3103 3106 3108 3109 3111 3116 3114 3112 3115 3117 3120 3122 3124 3124 3124 3123 3122 3122 3122 3122 3121 3121
2859 2867 2877 2887 2897 2906 2915 2923 2931 2939 2946 2953 2959 2965 2971 2980 2986 2996 3005 3014 3026 3033 3041 3045 3051 3057 3063 3069 3077 3082 3087 3093 3097 3101 3101 3104 3107 3109 3107 3106 3110 3113 3116 3117 3119 3119 3119 3119 3118 3118 3117 3117 3117 3116
2854 2862 2871 2881 2892 2902 2911 2919 2927 2935 2942 2950 2955 2961 2969 2978 2988 2995 3002 3009 3021 3029 3036 3038 3042 3051 3058 3063 3071 3077 3082 3087 3092 3094 3096 3098 3102 3102 3097 3100 3104 3108 3110 3111 3113 3114 3113 3114 3114 3114 3114 3113 3113 3113
2848 2857 2866 2875 2886 2897 2907 2915 2923 2931 2940 2948 2954 2961 2969 2973 2981 2991 3002 3011 3017 3027 3027 3029 3036 3044 3052 3060 3067 3073 3078 3082 3087 3089 3091 3094 3092 3089 3088 3093 3096 3100 3103 3106 3107 3108 3108 3108 3109 3109 3109 3109 3109 3110
2841 2851 2861 2870 2880 2891 2900 2910 2919 2927 2937 2942 2951 2958 2962 2965 2984 2992 3005 3007 3010 3013 3019 3026 3035 3041 3048 3053 3061 3069 3072 3078 3081 3085 3085 3083 3076 3080 3084 3088 3092 3094 3097 3099 3101 3102 3103 3103 3104 3105 3105 3105 3106 3105
2836 2847 2857 2866 2875 2885 2897 2907 2915 2923 2927 2935 2945 2954 2958 2971 2978 2987 2992 2992 2996 3003 3010 3023 3033 3041 3047 3051 3057 3064 3067 3072 3075 3077 3078 3072 3062 3070 3076 3080 3084 3088 3091 3093 3094 3095 3097 3098 3099 3100 3101 3101 3101 3100
2832 2844 2853 2863 2872 2884 2894 2903 2910 2914 2922 2933 2941 2949 2958 2966 2972 2978 2974 2982 2988 2995 3004 3015 3030 3041 3044 3050 3055 3060 3063 3069 3069 3070 3070 3062 3058 3064 3067 3071 3075 3080 3083 3086 3088 3090 3092 3093 3094 3095 3096 3096 3096 3095
2829 2841 2851 2862 2872 2884 2893 2900 2907 2916 2921 2929 2938 2945 2950 2956 2951 2957 2965 2974 2981 2988 2997 3010 3026 3036 3041 3047 3051 3056 3059 3064 3065 3063 3058 3052 3058 3060 3062 3065 3069 3073 3077 3080 3083 3085 3087 3088 3089 3091 3092 3092 3091 3090
2827 2839 2851 2862 2873 2884 2892 2900 2910 2915 2920 2923 2931 2939 2946 2952 2945 2953 2964 2972 2977 2985 2994 3007 3018 3027 3032 3041 3048 3053 3056 3058 3057 3052 3045 3050 3053 3055 3058 3062 3065 3069 3073 3076 3079 3080 3082 3084 3085 3087 3088 3087 3087 3086
2826 2839 2852 2864 2874 2885 2894 2902 2908 2913 2917 2924 2929 2930 2935 2942 2944 2950 2962 2969 2979 2988 2994 3005 3016 3022 3029 3037 3042 3044 3046 3045 3042 3037 3042 3046 3048 3051 3055 3059 3063 3066 3069 3072 3074 3076 3078 3080 3082 3083 3084 3084 3082 3080
2827 2842 2852 2864 2875 2884 2893 2898 2902 2910 2916 2917 2921 2928 2935 2940 2943 2952 2960 2972 2979 2986 2997 3005 3011 3019 3024 3029 3032 3032 3034 3032 3031 3035 3039 3043 3045 3048 3053 3057 3061 3063 3066 3068 3071 3073 3075 3078 3079 3080 3080 3078 3077 3075
2825 2835 2850 2864 2873 2884 2890 2895 2903 2911 2916 2914 2918 2926 2934 2945 2949 2955 2963 2971 2979 2985 2993 3000 3004 3014 3019 3023 3023 3022 3023 3027 3031 3034 3038 3041 3043 3047 3051 3055 3057 3059 3062 3065 3068 3071 3073 3075 3076 3077 3076 3074 3072 3070
2828 2842 2853 2863 2873 2883 2890 2895 2905 2910 2908 2909 2917 2924 2932 2942 2950 2955 2963 2972 2978 2984 2990 2994 3002 3005 3008 3010 3010 3013 3018 3024 3029 3033 3036 3038 3040 3045 3049 3052 3054 3057 3060 3064 3067 3069 3071 3073 3073 3072 3071 3071 3068 3065
2831 2843 2855 2862 2875 2885 2893 2901 2907 2909 2910 2914 2920 2927 2935 2942 2950 2958 2965 2971 2977 2982 2988 2994 2997 2998 3002 3003 3008 3012 3016 3022 3026 3029 3033 3035 3039 3043 3046 3049 3052 3055 3059 3062 3065 3067 3068 3069 3069 3068 3068 3066 3064 3059
2837 2847 2858 2870 2883 2891 2898 2902 2905 2906 2911 2916 2925 2931 2936 2942 2950 2955 2962 2968 2974 2981 2988 2989 2992 2995 2998 3002 3007 3011 3015 3019 3024 3026 3029 3032 3036 3040 3044 3047 3050 3054 3058 3061 3063 3065 3065 3066 3065 3064 3062 3059 3056 3053
2844 2852 2869 2879 2886 2895 2897 2899 2902 2903 2911 2917 2924 2930 2936 2943 2949 2956 2962 2968 2976 2979 2984 2987 2990 2994 2997 3001 3007 3011 3014 3018 3022 3026 3028 3030 3034 3038 3042 3046 3051 3054 3057 3059 3061 3062 3062 3063 3062 3060 3057 3054 3050 3046
2849 2862 2872 2882 2890 2894 2895 2899 2898 2903 2910 2917 2925 2930 2937 2944 2950 2956 2963 2969 2972 2975 2981 2986 2990 2995 2997 3001 3005 3009 3013 3016 3021 3024 3028 3031 3034 3037 3042 3046 3049 3052 3055 3057 3059 3059 3060 3059 3057 3054 3051 3047 3044 3039
2857 2868 2879 2885 2888 2889 2894 2896 2898 2902 2912 2919 2926 2931 2938 2943 2950 2957 2963 2966 2969 2974 2981 2987 2989 2993 2997 3002 3004 3007 3012 3017 3020 3023 3027 3031 3035 3039 3042 3046 3049 3052 3054 3055 3056 3057 3056 3054 3051 3048 3045 3042 3039 3035
2869 2875 2881 2881 2882 2884 2891 2895 2897 2902 2909 2918 2927 2932 2938 2944 2949 2953 2955 2959 2966 2973 2980 2984 2987 2990 2995 2999 3002 3006 3009 3014 3019 3023 3028 3032 3035 3038 3042 3046 3048 3050 3052 3053 3053 3052 3050 3048 3045 3043 3040 3037 3034 3031
2872 2872 2872 2876 2878 2885 2889 2896 2901 2906 2911 2917 2924 2931 2937 2941 2946 2951 2953 2957 2964 2970 2975 2979 2985 2989 2994 2996 3000 3005 3010 3015 3020 3024 3027 3032 3036 3039 3042 3044 3046 3048 3049 3049 3048 3047 3045 3043 3040 3039 3037 3033 3029 3026
2863 2869 2874 2876 2880 2887 2889 2896 2902 2906 2913 2919 2924 2929 2935 2941 2949 2949 2950 2955 2961 2968 2973 2980 2984 2987 2991 2996 3000 3004 3010 3016 3021 3025 3027 3032 3036 3039 3041 3043 3044 3046 3046 3045 3044 3043 3040 3038 3037 3035 3032 3028 3024 3020
2862 2869 2873 2875 2880 2887 2893 2900 2905 2909 2914 2919 2921 2929 2935 2939 2941 2942 2946 2955 2964 2970 2975 2979 2984 2989 2993 2996 3002 3007 3012 3016 3022 3027 3029 3031 3034 3037 3039 3041 3042 3042 3042 3041 3040 3038 3037 3035 3033 3030 3027 3023 3019 3014
2862 2869 2873 2878 2882 2889 2894 2899 2905 2910 2913 2915 2923 2927 2932 2935 2937 2939 2945 2954 2963 2969 2973 2978 2984 2989 2995 3000 3005 3008 3011 3015 3019 3024 3027 3030 3032 3035 3037 3038 3038 3039 3039 3038 3037 3035 3033 3031 3028 3025 3021 3017 3013 3010
2863 2869 2875 2879 2884 2889 2895 2898 2901 2905 2910 2916 2920 2925 2929 2933 2937 2942 2947 2953 2961 2966 2972 2977 2981 2988 2995 3000 3005 3009 3013 3017 3021 3023 3026 3029 3032 3034 3035 3035 3036 3036 3036 3035 3033 3032 3030 3027 3024 3019 3015 3011 3008 3005
2866 2870 2876 2880 2885 2889 2892 2896 2899 2904 2909 2914 2918 2924 2929 2933 2938 2944 2949 2955 2961 2967 2973 2979 2983 2988 2993 2997 3001 3006 3011 3016 3019 3024 3027 3029 3031 3032 3032 3033 3033 3033 3032 3032 3030 3028 3026 3022 3018 3015 3011 3008 3005 3001
2867 2874 2879 2882 2885 2889 2893 2897 2901 2905 2909 2913 2918 2926 2931 2935 2939 2945 2952 2957 2963 2968 2972 2977 2983 2988 2994 2998 3004 3008 3011 3015 3018 3022 3025 3027 3028 3029 3030 3030 3030 3030 3030 3028 3026 3024 3021 3017 3014 3011 3007 3004 3000 2996
2870 2874 2878 2881 2885 2890 2895 2899 2903 2907 2911 2916 2920 2926 2930 2934 2936 2942 2949 2956 2962 2968 2974 2980 2985 2989 2995 3001 3005 3009 3013 3016 3018 3021 3023 3025 3026 3027 3027 3028 3028 3027 3026 3025 3023 3020 3017 3014 3010 3006 3004 3000 2996 2992
2875 2879 2882 2885 2888 2892 2896 2899 2904 2909 2915 2919 2922 2925 2929 2932 2936 2943 2948 2956 2965 2970 2975 2980 2986 2991 2995 3000 3004 3007 3010 3013 3016 3019 3021 3023 3024 3025 3025 3025 3025 3024 3023 3021 3019 3016 3013 3009 3006 3003 3000 2995 2991 2987